Omak, WA

7:58 PM PST on December 15, 2017 (GMT -0800)
Omak

Weather History for KOMK - October, 2013

Change the Weather History Date:

Saturday, October 12, 2013

  Actual Average Record
Temperature  
Mean Temperature 51 °F 51 °F  
Max Temperature 59 °F 64 °F 79 °F (1979)
Min Temperature 43 °F 37 °F 10 °F (2009)
Degree Days  
Heating Degree Days 14 14  
Month to date heating degree days 195 140  
Since 1 July heating degree days 328 301  
Cooling Degree Days 0 0  
Month to date cooling degree days 0 0  
Year to date cooling degree days 814 664  
Moisture  
Dew Point 35 °F    
Average Humidity 53    
Maximum Humidity 65    
Minimum Humidity 40    
Precipitation  
Precipitation T in 0.03 in 0.42 in (1962)
Month to date precipitation 0.05 0.33  
Year to date precipitation 8.88 10.19  
Sea Level Pressure  
Sea Level Pressure 30.11 in    
Wind  
Wind Speed 9 mph (NNW)    
Max Wind Speed 15 mph    
Max Gust Speed 18 mph    
Visibility 10 miles    
Events      
T = Trace of Precipitation, MM = Missing Value Source: NWS Daily Summary

Daily Weather History Graph

Daily Weather History Graph

Search for Another Location

Airport or City:

Trip Planner

Search our weather history database for the weather conditions in past years. The results will help you decide how hot, cold, wet, or windy it might be!

Date:

Astronomy

Oct. 12, 2013 Rise Set
Actual Time 7:14 AM PDT 6:14 PM PDT
Civil Twilight 6:42 AM PDT 6:45 PM PDT
Nautical Twilight 6:06 AM PDT 7:21 PM PDT
Astronomical Twilight 5:29 AM PDT 7:57 PM PDT
Moon 2:54 PM PDT (10/12) No Moon Set
Length of Visible Light 12h 02m
Length of Day
11h 00m
First Quarter, 60% of the Moon is Illuminated
Oct 12
First Quarter
Oct 18
Full
Oct 26
Last Quarter
Nov 3
New
Nov 9
First Quarter

Hourly Weather History & Observations

Time (PDT) Temp. Windchill Dew Point Humidity Pressure Visibility Wind Dir Wind Speed Gust Speed Precip Events Conditions
12:53 AM 46.0 °F 42.5 °F 32.0 °F 58% 30.05 in 10.0 mi North 6.9 mph - N/A   Overcast
1:53 AM 46.9 °F - 33.1 °F 59% 30.06 in 10.0 mi NNW 8.1 mph - N/A   Overcast
2:53 AM 46.9 °F - 34.0 °F 61% 30.05 in 10.0 mi NNE 9.2 mph - N/A   Overcast
3:53 AM 46.9 °F - 35.1 °F 63% 30.05 in 10.0 mi North 11.5 mph - N/A   Overcast
4:53 AM 46.0 °F 41.0 °F 35.1 °F 66% 30.06 in 10.0 mi North 10.4 mph - N/A   Overcast
5:53 AM 46.0 °F 41.9 °F 35.1 °F 66% 30.07 in 10.0 mi North 8.1 mph - N/A   Overcast
6:53 AM 46.0 °F 41.4 °F 36.0 °F 68% 30.08 in 10.0 mi North 9.2 mph - 0.00 in   Overcast
7:53 AM 46.0 °F 41.9 °F 36.0 °F 68% 30.09 in 10.0 mi NNW 8.1 mph - N/A   Overcast
8:53 AM 46.9 °F - 36.0 °F 66% 30.11 in 10.0 mi NNW 11.5 mph - N/A   Overcast
9:53 AM 48.0 °F - 36.0 °F 63% 30.12 in 10.0 mi North 10.4 mph - N/A   Overcast
10:53 AM 50.0 °F - 37.0 °F 61% 30.12 in 10.0 mi North 9.2 mph - N/A   Overcast
11:53 AM 52.0 °F - 37.0 °F 57% 30.13 in 10.0 mi North 10.4 mph - N/A   Overcast
12:53 PM 53.1 °F - 36.0 °F 52% 30.11 in 10.0 mi North 10.4 mph - N/A   Overcast
1:53 PM 55.0 °F - 36.0 °F 49% 30.10 in 10.0 mi North 8.1 mph - N/A   Overcast
2:53 PM 55.9 °F - 35.1 °F 45% 30.09 in 10.0 mi North 6.9 mph - N/A   Overcast
3:53 PM 57.0 °F - 34.0 °F 42% 30.09 in 10.0 mi North 9.2 mph - N/A   Mostly Cloudy
4:53 PM 57.9 °F - 34.0 °F 41% 30.10 in 10.0 mi North 10.4 mph - N/A   Mostly Cloudy
5:53 PM 51.1 °F - 33.1 °F 50% 30.12 in 10.0 mi North 6.9 mph - N/A   Partly Cloudy
6:53 PM 48.0 °F - 33.1 °F 56% 30.14 in 10.0 mi North 6.9 mph - N/A   Overcast
7:53 PM 48.9 °F - 33.1 °F 54% 30.16 in 10.0 mi WNW 8.1 mph - N/A   Scattered Clouds
8:53 PM 45.0 °F 41.2 °F 33.1 °F 63% 30.17 in 10.0 mi WNW 6.9 mph - N/A   Mostly Cloudy
9:53 PM 46.0 °F 40.6 °F 34.0 °F 63% 30.19 in 10.0 mi WNW 11.5 mph - N/A   Clear
10:53 PM 44.1 °F 40.8 °F 33.1 °F 65% 30.20 in 10.0 mi WNW 5.8 mph - N/A   Clear
11:53 PM 44.1 °F 39.0 °F 33.1 °F 65% 30.21 in 10.0 mi WNW 9.2 mph - N/A   Clear